Location: Daubensand
(48.3490°N, 7.7181°E)
Time: 03:35:11
(UTC+00:00)

Daily predictions for brighter satellites

Satellite Brightness Start Highest point End
(mag) Time Altitude Azimuth Time Altitude Azimuth Time Altitude Azimuth
NOSS 3-2 (A) 4.5 02:24:29 40° E 02:24:29 40° E 02:29:15 10° NE
Lacrosse 4 Rocket 4.4 02:31:40 12° E 02:31:40 12° E 02:32:26 10° E
IDEFIX/ARIANE 42P 4.3 02:33:26 10° NNE 02:35:46 27° NNE 02:35:46 27° NNE
USA 234 3.6 02:35:38 10° NE 02:41:14 57° N 02:41:14 57° N
NOSS 3-3 (A) 4.4 02:49:53 87° W 02:50:00 88° SW 02:58:23 10° SE
NOSS 3-3 (C) 4.3 02:50:06 88° SW 02:50:06 88° SW 02:58:22 10° SE
Cosmos 1656 4.5 02:49:55 45° NNE 02:50:46 49° NE 02:56:16 10° SE
ADEOS Rocket 3.5 02:49:27 10° SE 02:54:43 50° ENE 03:00:07 10° N
Cosmos 2344 3.5 02:56:52 65° S 02:57:58 76° SE 03:06:00 10° NE
Lacrosse 5 rocket 4.2 03:00:14 11° ESE 03:00:14 11° ESE 03:00:48 10° ESE
Cosmos 1697 Rocket 3.9 03:03:55 16° N 03:08:06 39° NE 03:13:22 10° ESE
NOSS 3-2 (C) 3.5 03:21:46 57° S 03:22:51 70° SE 03:29:22 10° NE
MSX 3.8 03:21:33 10° N 03:26:50 65° NW 03:26:50 65° NW
CZ-4B R/B 3.4 03:25:39 10° SE 03:28:41 29° ENE 03:30:17 20° NNE
Cosmos 44 Rocket 3.3 03:29:14 86° NE 03:29:15 86° NE 03:34:27 10° SE
Cosmos 1980 Rocket 3.8 03:24:46 10° NNW 03:29:48 33° NE 03:34:48 10° ESE
ADEOS II 4.3 03:28:46 10° NNW 03:29:26 13° NNW 03:29:26 13° NNW
PSLV R/B 3.6 03:31:59 10° NNE 03:36:14 75° E 03:36:14 75° E
CENTAUR R/B 2.5 03:35:38 48° SSW 03:37:34 84° SE 03:44:44 10° NE
ARIANE 5 R/B 4.2 03:34:16 10° N 03:36:09 20° NNW 03:36:09 20° NNW
ERS-2 2.5 03:44:26 10° SSE 03:47:31 59° SE 03:47:31 59° SE
KORONAS-FOTON 3.8 03:51:42 84° ESE 03:51:42 84° ESE 03:55:37 10° N
ALOS 3.0 03:53:11 10° NNE 03:57:47 53° E 04:02:20 10° S
CZ-3 R/B 4.4 03:43:26 17° SW 03:58:36 31° S 04:06:49 10° SE
Cosmos 2180 Rocket 4.4 03:52:46 10° NNW 03:59:00 66° W 04:05:07 10° S
Nadezhda 4 Rocket 4.0 03:57:12 10° S 04:03:17 78° E 04:09:27 10° NNE
CZ-2C R/B 2.4 04:00:15 10° N 04:05:13 61° WNW 04:07:18 33° SW
Cosmos 1300 3.8 04:02:10 10° N 04:05:52 45° ENE 04:09:33 10° SSE
Abrixas rocket 2.7 04:06:51 49° ESE 04:06:51 49° ESE 04:09:04 10° E
ADEOS 3.8 04:02:34 10° NNE 04:07:49 70° ESE 04:13:01 10° S
ISS -2.2 04:07:10 26° S 04:08:03 31° SE 04:11:04 10° E
Lacrosse 4 Rocket 1.1 04:08:01 56° WSW 04:08:46 75° WNW 04:12:51 10° NNE
GP-B 4.4 04:10:49 25° NW 04:10:49 25° NW 04:13:01 10° NNW
USA 238 DEB 3.8 04:07:03 35° W 04:09:43 54° NW 04:16:34 10° NE
USA 238 3.8 04:07:08 35° W 04:09:49 54° NW 04:16:40 10° NE
Cosmos 1833 Rocket 2.9 04:04:22 10° SSW 04:10:00 73° ESE 04:15:39 10° NNE
PAYLOAD A 4.1 04:05:18 10° N 04:10:11 51° WNW 04:12:20 31° SW
In-Cosmos 22 4.2 04:09:21 34° WSW 04:11:12 49° WNW 04:16:30 10° N
Cosmos 1689 Rocket 3.8 04:09:03 10° SE 04:11:45 33° ENE 04:14:27 10° N
Cosmos 1025 Rocket 4.0 04:14:23 31° NW 04:14:23 31° NW 04:17:27 10° N
NOSS 3-2 (A) 3.9 04:11:54 34° W 04:14:01 46° NW 04:20:33 10° NE
Cosmos 1302 Rocket 4.2 04:12:05 23° NW 04:15:07 48° WSW 04:20:09 10° S
Meteor 1-24 Rocket 4.5 04:10:06 10° S 04:15:33 56° E 04:21:15 10° NNE
Cosmos 1674 2.9 04:16:30 46° WNW 04:16:30 46° WNW 04:19:52 10° N
Cosmos 1484 Rocket 2.8 04:12:35 10° NNE 04:16:30 80° ESE 04:20:18 10° S
IDEFIX/ARIANE 42P 4.1 04:14:03 10° NNW 04:16:34 18° NW 04:16:34 18° NW
Cosmos 1269 Rocket 4.1 04:15:37 27° SW 04:18:21 56° WNW 04:23:36 10° NNE
Cosmos 2369 3.6 04:13:46 10° NNW 04:19:28 82° WSW 04:25:07 10° SSE
Cosmos 2228 3.0 04:15:10 10° N 04:19:34 87° E 04:23:56 10° S
Cosmos 1606 Rocket 3.6 04:17:01 10° N 04:21:30 86° E 04:25:59 10° S
Geosat 4.2 04:17:45 10° S 04:22:35 47° WSW 04:25:54 19° NW
CZ-4B R/B 4.3 04:19:35 10° NNE 04:23:22 40° E 04:27:19 10° S
ATLAS 3B R/B 3.1 04:17:21 10° SSW 04:23:46 60° ESE 04:30:18 10° NE
USA 234 4.0 04:18:25 10° ENE 04:24:29 42° N 04:28:35 20° WNW
Cosmos 1626 2.0 04:21:36 10° S 04:25:17 86° W 04:29:01 10° N
METEOR-M 4.2 04:22:32 10° NNE 04:27:56 81° ESE 04:33:16 10° SSW
Cosmos 2082 Rocket 2.8 04:23:03 10° S 04:28:33 59° ESE 04:34:05 10° NE
COSMO-SKYMED 1 2.8 04:25:36 10° SSE 04:29:54 74° ENE 04:34:16 10° N
Cosmos 1656 4.4 04:31:28 21° WNW 04:34:13 32° WSW 04:39:11 10° SSW
SL-16 R/B 3.8 04:29:58 10° NNW 04:35:05 33° NE 04:40:09 10° ESE
Lacrosse 5 rocket 1.2 04:35:54 20° SW 04:38:17 74° SE 04:42:06 10° ENE
Meteor 2-5 Rocket 3.7 04:33:10 10° SSW 04:38:51 78° WNW 04:44:42 10° N
Meteor 1-31 Rocket 2.7 04:36:34 10° N 04:40:31 75° WNW 04:44:26 10° SSW
ADEOS Rocket 3.6 04:36:06 10° SSW 04:40:37 26° W 04:45:13 10° NW
CREW DRAGON DEMO-1 DEB 3.2 04:42:58 28° NW 04:44:15 52° NNE 04:47:13 10° E
Meteor PRIRODA 4.2 04:42:18 10° NNE 04:45:56 60° ESE 04:49:32 10° S
COSMOS 2406 3.4 04:41:43 10° SW 04:47:13 51° NW 04:52:46 10° NNE
deb Kosmos-1763 3.9 04:43:44 10° SSW 04:47:19 71° WNW 04:50:55 10° NNE
Okean 1-7 Rocket 4.2 04:43:19 10° S 04:47:48 61° E 04:52:17 10° NNE
deb Chang Zheng 4 3.6 04:47:13 10° N 04:51:22 53° WNW 04:55:30 10° SSW
Cosmos 2058 Rocket 3.1 04:46:53 10° N 04:51:25 88° E 04:55:54 10° S
CZ-4B R/B 4.0 04:47:12 10° N 04:51:26 59° WNW 04:55:25 10° SSW
Cosmos 220 Rocket 4.3 04:47:34 10° NW 04:51:49 45° WSW 04:56:02 10° S
Cosmos 1697 Rocket 3.1 04:46:50 10° NW 04:52:06 41° WSW 04:57:21 10° S
Cosmos 1455 4.0 04:51:40 10° N 04:55:15 35° ENE 04:58:49 10° SE
Cosmos 1992 Rocket 4.1 04:51:02 10° NNW 04:56:04 51° WSW 05:01:06 10° S
Cosmos 2026 Rocket 4.0 04:54:25 10° S 05:00:48 84° W 05:07:14 10° N
CZ-4B R/B 2.7 04:58:16 10° SW 05:00:57 21° W 05:03:23 11° NW
ARGOS Delta rocket 4.1 04:55:49 10° N 05:01:08 66° WNW 05:06:33 10° SSW
Cosmos 2360 Rocket 4.1 04:57:33 10° N 05:02:13 26° NE 05:06:53 10° ESE
Cosmos 1892 Rocket 3.5 05:00:18 10° SSW 05:04:37 66° WNW 05:08:59 10° N
FENGYUN 3A 4.0 04:59:47 10° N 05:04:56 44° WNW 05:10:03 10° SW
Cosmos 2195 Rocket 4.4 04:59:11 10° SSW 05:05:21 68° W 05:11:31 10° N
Cosmos 1400 Rocket 3.0 05:04:06 10° NNW 05:07:54 45° W 05:11:38 10° SSW
Cosmos 2084 4.3 05:04:24 10° SSW 05:08:37 55° SE 05:12:56 10° NE
H-2A R/B 3.7 05:06:22 10° NNE 05:10:41 49° E 05:14:50 10° S
Cosmos 2344 4.3 05:06:55 12° W 05:13:15 38° NNW 05:21:23 10° NE
Cosmos 1980 Rocket 2.4 05:08:38 10° NW 05:14:01 50° WSW 05:19:24 10° S
NOSS 3-2 (C) 4.2 05:09:14 12° W 05:14:19 36° NNW 05:20:38 10° NE
YAOGAN 6 4.2 05:13:00 10° NNE 05:16:31 40° E 05:20:00 10° S
SKYMED 2 4.1 05:14:04 10° SSW 05:18:05 37° W 05:22:09 10° NNW
Cosmos 2251 Rocket 3.6 05:13:25 10° SW 05:18:43 59° WNW 05:24:01 10° NNE
SJ-12 4.3 05:16:02 10° N 05:19:58 43° WNW 05:23:52 10° SW
MOS 1 Rocket 3.4 05:17:15 10° SSE 05:21:32 72° ENE 05:25:49 10° N
ERS-2 4.1 05:21:50 10° W 05:22:03 10° W 05:22:05 10° W
Okean O Rocket 3.6 05:20:04 10° NNE 05:24:04 35° E 05:28:03 10° SSE
CZ-2C R/B 4.0 05:20:22 10° SE 05:25:37 44° ENE 05:30:55 10° N
DMSP B5D1-3 4.5 05:22:33 10° S 05:27:38 78° WSW 05:32:47 10° NNW
Cosmos 1461 3.4 05:23:12 10° WSW 05:27:39 50° NW 05:32:16 10° NNE
CENTAUR R/B 3.5 05:23:14 10° W 05:29:06 35° NNW 05:35:56 10° NE
Cosmos 2219 Rocket 4.4 05:25:27 10° N 05:29:26 19° NE 05:33:24 10° E
Cosmos 614 Rocket 4.0 05:24:28 10° SSW 05:29:38 87° WNW 05:34:48 10° NNE
Cosmos 1626 Rocket 3.8 05:25:46 10° S 05:30:13 82° E 05:34:44 10° N
TELKOM 3 4.3 05:28:17 10° WSW 05:31:41 75° SSE 05:35:57 10° ENE
Cosmos 1602 Rocket 4.1 05:28:00 10° S 05:32:23 66° E 05:36:50 10° NNE
ALOS 3.5 05:31:19 10° NNW 05:34:51 22° WNW 05:38:24 10° WSW
SJ-7 4.3 05:31:22 10° NNE 05:35:25 80° WNW 05:39:24 10° SSW
